DW8838 Weather Reports


time (UTC)temp
C
wind
direction
speed
KPH
gust
KPH
rain 1hr
cm
rain 24hr
cm
rain mn
cm
humidity
%
barometer
mb
20260508071517 11 180 3.2 4.8 0.00 0.00 0.00 82
20260508070517 11 248 1.6 4.8 0.00 0.00 0.00 84
20260508065517 10 180 1.6 3.2 0.00 0.00 0.00 86
20260508064517 10 0.0 0.0 0.00 0.00 0.00 87
20260508063517 10 0.0 0.0 0.00 0.00 0.00 87
20260508062517 10 158 1.6 3.2 0.00 0.00 0.00 87
20260508061517 10 0.0 0.0 0.00 0.00 0.00 87
20260508060517 10 0.0 0.0 0.00 0.00 0.00 87
20260508055517 10 0.0 1.6 0.00 0.00 0.00 87
20260508054537 10 0.0 0.0 0.00 0.00 0.00 88
20260508053517 9 0.0 0.0 0.00 0.00 0.00 88
20260508052517 9 0.0 1.6 0.00 0.00 0.00 88
20260508051537 9 0.0 0.0 0.00 0.00 0.00 88
20260508050517 9 0.0 1.6 0.00 0.00 0.00 88
20260508045517 9 0.0 1.6 0.00 0.00 0.00 88
20260508044517 9 158 1.6 3.2 0.00 0.00 0.00 88
20260508043537 9 0.0 0.0 0.00 0.00 0.00 88
20260508042516 9 0.0 0.0 0.00 0.00 0.00 88
20260508041516 9 0.0 1.6 0.00 0.00 0.00 87
20260508040517 9 0.0 0.0 0.00 0.00 0.00 87
20260508035517 9 0.0 0.0 0.00 0.00 0.00 87
20260508034517 9 0.0 0.0 0.00 0.00 0.00 86
20260508033537 10 135 1.6 4.8 0.00 0.00 0.00 86
20260508032516 10 0.0 1.6 0.00 0.00 0.00 86
20260508031536 10 158 3.2 4.8 0.00 0.00 0.00 86
20260508030516 10 180 1.6 4.8 0.00 0.00 0.00 86
20260508025516 10 180 4.8 6.4 0.00 0.00 0.00 86
20260508024516 10 158 1.6 1.6 0.00 0.00 0.00 86
20260508023557 10 158 1.6 4.8 0.00 0.00 0.00 85
20260508022516 10 203 1.6 3.2 0.00 0.00 0.00 85
20260508021536 10 0.0 1.6 0.00 0.00 0.00 85
20260508020516 10 0.0 3.2 0.00 0.00 0.00 85
20260508015516 10 0.0 0.0 0.00 0.00 0.00 84
20260508014516 10 0.0 1.6 0.00 0.00 0.00 84
20260508013516 10 0.0 1.6 0.00 0.00 0.00 84
20260508012517 10 0.0 0.0 0.00 0.00 0.00 84
20260508011516 10 158 1.6 3.2 0.00 0.00 0.00 84
20260508010517 10 180 3.2 6.4 0.00 0.00 0.00 84
20260508005556 10 158 1.6 3.2 0.00 0.00 0.00 84
20260508004516 10 180 1.6 3.2 0.00 0.00 0.00 83
20260508003516 10 180 4.8 6.4 0.00 0.00 0.00 83
20260508002536 10 0.0 1.6 0.00 0.00 0.00 82
20260508001536 10 180 3.2 4.8 0.00 0.00 0.00 82
20260508000516 10 158 6.4 8.0 0.00 0.00 0.00 82
20260507235516 10 158 4.8 6.4 0.00 0.00 0.00 82
20260507234516 10 158 3.2 4.8 0.00 0.00 0.00 82
20260507233516 10 158 3.2 6.4 0.00 0.00 0.00 82
20260507232516 10 113 3.2 6.4 0.00 0.00 0.00 81
20260507231516 10 135 4.8 9.7 0.00 0.00 0.00 81
20260507230536 10 158 3.2 4.8 0.00 0.00 0.00 80
20260507225516 11 203 3.2 6.4 0.00 0.00 0.00 79
20260507224516 11 158 3.2 6.4 0.00 0.00 0.00 78
20260507223516 11 180 3.2 8.0 0.00 0.00 0.00 77
20260507222516 11 135 3.2 8.0 0.00 0.00 0.00 77
20260507221516 11 135 6.4 14.5 0.00 0.00 0.00 76
20260507220516 11 135 4.8 11.3 0.00 0.00 0.00 76
20260507215536 11 158 3.2 6.4 0.00 0.00 0.00 75
20260507214516 11 158 3.2 6.4 0.00 0.00 0.00 75
20260507213516 11 135 3.2 6.4 0.00 0.00 0.00 75
20260507212536 11 158 4.8 8.0 0.00 0.00 0.00 74
20260507211516 11 135 4.8 8.0 0.00 0.00 0.00 73
20260507210516 11 135 3.2 8.0 0.00 0.00 0.00 72
20260507205516 11 180 4.8 9.7 0.00 0.00 0.00 71
20260507204536 12 135 6.4 9.7 0.00 0.00 0.00 70
20260507203516 12 135 6.4 14.5 0.00 0.00 0.00 69
20260507202516 12 158 3.2 4.8 0.00 0.00 0.00 68
20260507201516 12 135 4.8 8.0 0.00 0.00 0.00 68
20260507200516 12 158 3.2 4.8 0.00 0.00 0.00 67
20260507195516 12 135 1.6 3.2 0.00 0.00 0.00 66
20260507194516 12 135 4.8 9.7 0.00 0.00 0.00 65
20260507193536 12 158 6.4 9.7 0.00 0.00 0.00 64
20260507192516 12 158 3.2 9.7 0.00 0.00 0.00 62
20260507191516 12 135 3.2 6.4 0.00 0.00 0.00 62
20260507190516 12 135 1.6 3.2 0.00 0.00 0.00 62
20260507185516 13 135 6.4 11.3 0.00 0.00 0.00 61
20260507184556 13 135 6.4 11.3 0.00 0.00 0.00 60
20260507183516 13 135 1.6 4.8 0.00 0.00 0.00 59
20260507182515 13 135 4.8 8.0 0.00 0.00 0.00 58
20260507181516 13 135 3.2 8.0 0.00 0.00 0.00 57
20260507180516 13 135 1.6 3.2 0.00 0.00 0.00 57
20260507175537 13 135 6.4 11.3 0.00 0.00 0.00 56
20260507174517 13 135 6.4 8.0 0.00 0.00 0.00 56
20260507173516 13 158 3.2 6.4 0.00 0.00 0.00 55
20260507172517 13 203 4.8 6.4 0.00 0.00 0.00 55
20260507171517 14 135 4.8 6.4 0.00 0.00 0.00 55
20260507170516 14 135 8.0 12.9 0.00 0.00 0.00 55
20260507165516 14 135 6.4 9.7 0.00 0.00 0.00 55
20260507164516 14 135 8.0 12.9 0.00 0.00 0.00 55
20260507163537 14 180 6.4 9.7 0.00 0.00 0.00 55
20260507162516 15 45 1.6 3.2 0.00 0.00 0.00 55
20260507161516 15 135 8.0 14.5 0.00 0.00 0.00 54
20260507160517 15 113 1.6 4.8 0.00 0.00 0.00 53
20260507155516 15 158 4.8 8.0 0.00 0.00 0.00 54
20260507154517 15 113 6.4 12.9 0.00 0.00 0.00 55
20260507153517 14 158 3.2 6.4 0.00 0.00 0.00 55
20260507152517 15 113 4.8 9.7 0.00 0.00 0.00 54
20260507151516 14 135 4.8 8.0 0.00 0.00 0.00 54
20260507150516 13 180 6.4 9.7 0.00 0.00 0.00 55
20260507145517 13 158 6.4 8.0 0.00 0.00 0.00 55
20260507144516 13 180 4.8 8.0 0.00 0.00 0.00 56
20260507143517 13 158 8.0 12.9 0.00 0.00 0.00 55
20260507142516 13 180 3.2 4.8 0.00 0.00 0.00 54
20260507141516 13 158 4.8 8.0 0.00 0.00 0.00 56
20260507140517 13 225 4.8 8.0 0.00 0.00 0.00 58
20260507135516 13 225 4.8 8.0 0.00 0.00 0.00 56
20260507134516 13 203 4.8 8.0 0.00 0.00 0.00 56
20260507133536 13 158 1.6 4.8 0.00 0.00 0.00 56
20260507132516 13 225 8.0 11.3 0.00 0.00 0.00 56
20260507131516 14 180 3.2 6.4 0.00 0.00 0.00 53
20260507130516 14 203 4.8 8.0 0.00 0.00 0.00 52
20260507125516 13 180 8.0 11.3 0.00 0.00 0.00 56
20260507124516 13 113 3.2 4.8 0.00 0.00 0.00 59
20260507123516 13 135 3.2 4.8 0.00 0.00 0.00 59
20260507122516 13 180 3.2 8.0 0.00 0.00 0.00 60
20260507121516 13 180 6.4 11.3 0.00 0.00 0.00 60
20260507120536 13 135 4.8 9.7 0.00 0.00 0.00 59
20260507115516 13 158 6.4 9.7 0.00 0.00 0.00 62
20260507114516 13 180 3.2 9.7 0.00 0.00 0.00 63
20260507113516 13 135 3.2 8.0 0.00 0.00 0.00 64
20260507112516 13 180 6.4 11.3 0.00 0.00 0.00 65
20260507111516 12 180 6.4 9.7 0.00 0.00 0.00 66
20260507110516 12 180 4.8 8.0 0.00 0.00 0.00 67
20260507105516 12 158 6.4 8.0 0.00 0.00 0.00 69
20260507104516 12 135 4.8 8.0 0.00 0.00 0.00 70
20260507103516 12 135 4.8 9.7 0.00 0.00 0.00 71
20260507102536 12 180 3.2 8.0 0.00 0.00 0.00 71
20260507101516 11 135 4.8 8.0 0.00 0.00 0.00 72
20260507100536 11 180 3.2 4.8 0.00 0.00 0.00 73
20260507095516 11 158 3.2 6.4 0.00 0.00 0.00 74
20260507094516 10 135 4.8 6.4 0.00 0.00 0.00 75
20260507093516 11 203 1.6 3.2 0.00 0.00 0.00 76
20260507092556 10 158 3.2 6.4 0.00 0.00 0.00 77
20260507091516 10 180 6.4 11.3 0.00 0.00 0.00 77
20260507090516 10 225 4.8 11.3 0.00 0.00 0.00 78
20260507085516 10 135 6.4 12.9 0.00 0.00 0.00 79
20260507084519 10 158 4.8 8.0 0.00 0.00 0.00 79
20260507083516 10 158 4.8 9.7 0.00 0.00 0.00 80
20260507082516 10 135 1.6 3.2 0.00 0.00 0.00 81
20260507081516 9 158 6.4 9.7 0.00 0.00 0.00 81
20260507080516 9 135 3.2 4.8 0.00 0.00 0.00 83
20260507075516 9 158 3.2 8.0 0.00 0.00 0.00 84
20260507074516 8 158 3.2 6.4 0.00 0.00 0.00 84
20260507073515 8 203 1.6 6.4 0.00 0.00 0.00 84
20260507072516 8 158 4.8 8.0 0.00 0.00 0.00 83